DELTA 1 DEB, 42558

Orbit data source: Space-Track

DELTA 1 DEB, 42558 is space debris in SSO originally from a launch on Sun, 23 Jul 1972 UTC launched from the Air Force Western Test Range (AFWTR). Debris objects in space refer to the collection of defunct objects orbiting the Earth. Examples of debris include non-operational satellites, rocket bodies, and fragments generated from explosions, collisions, or faulty payload assembly.

Loading next visibility...
Identifier
42558, 1972-058JR
Orbit
SSO
Last TLE update
6 hours ago
Origin
Manufacturer
Unknown
Mission
Spacecraft
Bus & Motor
Unknown
Mass
Unknown
Launch date (UTC)
1972-07-23 (53 years ago)
Launch vehicle
Unknown
Launch site
Air Force Western Test Range (AFWTR)
Object type
Payload
Rocket body
Debris
Shape & HBR
Unknown
Radar Cross Section
Small (<0.1 m²)

Expand to show TLE details & history

TLE from 6 hours ago
0 DELTA 1 DEB
1 42558U 72058JR  25186.70693508  .00000985  00000-0  18453-3 0  9992
2 42558  97.8374 161.2668 0038943  50.7129 309.7519 14.66432128619697
Epoch: 2025-07-05T16:57Z
TLE epoch observation values (Epoch: 2025-07-05T16:57:59.19Z)
Latitude
-0.00005°
Longitude
-17.17094°
Altitude
657.988 km
Speed
7.538 km/s
True Right ascension
10h 45m 04s
True Declination
0° 00' 00"
Sunlit
Object was in daylight at epoch
Visualization orbit readout
Latitude
-24.87792°
Longitude
-13.27487°
Altitude
674.504 km
Speed
7.522 km/s
Apparent Right ascension
09h 58m 12s
Apparent Declination
-77° 19' 15"
Sunlit
Object is in daylight
Visualization observer readout
Local Sidereal Time
11:20:33
Azimuth
185.012° SSW
Elevation
-27.932°
Doppler factor
1
Orbital elements
Apogee altitude
696.983 km
Perigee altitude
642.092 km
Semi-major axis
7,047.674 km
Eccentricity
0.00389
Inclination
97.8374°
RAAN
161.2668°
Arg. of periapsis
50.7129°
True anomaly
Unknown
Mean anomaly
309.7519°
Eccentric anomaly
Unknown
Mean motion
3.66838 °/min
Orbital period
98.14 mins
BSTAR
0.00018453
Loading maneuver chart data...
Loading SW <> Apogee altitude chart data...

DELTA 1 DEB Visibility forecast

Observer location: undefined°, undefined°

Span
Click to sort rows by Start time (UTC) header in descending order
Start Az.
Max El. time (UTC)
Max El. Az.
Max El.
End time (UTC)
End Az.
7 mins2025-07-06 11:33:12.781Z358.225° N2025-07-06 11:36:12.781Z296.693° NW38.972°2025-07-06 11:40:12.781Z211.778° SW
7 mins2025-07-06 22:34:12.781Z181.329° SSW2025-07-06 22:37:12.781Z247.683° W41.529°2025-07-06 22:41:12.781Z339.422° N
|